Year,Month,Day,Hour,Minute,Value (Times are PST for temperature in C)
2007,08,28,00,00,14.00
2007,08,28,00,01,14.10
2007,08,28,00,02,14.10
2007,08,28,00,03,14.10
2007,08,28,00,04,14.20
2007,08,28,00,05,14.20
2007,08,28,00,06,14.20
2007,08,28,00,07,14.20
2007,08,28,00,08,14.20
2007,08,28,00,09,14.20
2007,08,28,00,10,14.20
2007,08,28,00,11,14.20
2007,08,28,00,12,14.20
2007,08,28,00,13,14.20
2007,08,28,00,14,14.20
2007,08,28,00,15,14.20
2007,08,28,00,16,14.20
2007,08,28,00,17,14.10
2007,08,28,00,18,14.10
2007,08,28,00,19,14.00
2007,08,28,00,20,14.00
2007,08,28,00,21,14.00
2007,08,28,00,22,13.90
2007,08,28,00,23,13.90
2007,08,28,00,24,13.90
2007,08,28,00,25,13.80
2007,08,28,00,26,13.80
2007,08,28,00,27,13.80
2007,08,28,00,28,13.80
2007,08,28,00,29,13.70
2007,08,28,00,30,13.70
2007,08,28,00,31,13.70
2007,08,28,00,32,13.70
2007,08,28,00,33,13.70
2007,08,28,00,34,13.70
2007,08,28,00,35,13.70
2007,08,28,00,36,13.70
2007,08,28,00,37,13.60
2007,08,28,00,38,13.60
2007,08,28,00,39,13.60
2007,08,28,00,40,13.50
2007,08,28,00,41,13.50
2007,08,28,00,42,13.50
2007,08,28,00,43,13.40
2007,08,28,00,44,13.40
2007,08,28,00,45,13.40
2007,08,28,00,46,13.30
2007,08,28,00,47,13.30
2007,08,28,00,48,13.30
2007,08,28,00,49,13.20
2007,08,28,00,50,13.20
2007,08,28,00,51,13.10
2007,08,28,00,52,13.10
2007,08,28,00,53,13.10
2007,08,28,00,54,13.00
2007,08,28,00,55,13.00
2007,08,28,00,56,12.90
2007,08,28,00,57,12.90
2007,08,28,00,58,12.80
2007,08,28,00,59,12.80
2007,08,28,01,00,12.80
2007,08,28,01,01,12.80
2007,08,28,01,02,12.70
2007,08,28,01,03,12.70
2007,08,28,01,04,12.70
2007,08,28,01,05,12.70
2007,08,28,01,06,12.60
2007,08,28,01,07,12.60
2007,08,28,01,08,12.60
2007,08,28,01,09,12.60
2007,08,28,01,10,12.60
2007,08,28,01,11,12.50
2007,08,28,01,12,12.50
2007,08,28,01,13,12.50
2007,08,28,01,14,12.50
2007,08,28,01,15,12.50
2007,08,28,01,16,12.50
2007,08,28,01,17,12.50
2007,08,28,01,18,12.40
2007,08,28,01,19,12.40
2007,08,28,01,20,12.40
2007,08,28,01,21,12.40
2007,08,28,01,22,12.40
2007,08,28,01,23,12.30
2007,08,28,01,24,12.30
2007,08,28,01,25,12.30
2007,08,28,01,26,12.30
2007,08,28,01,27,12.30
2007,08,28,01,28,12.30
2007,08,28,01,29,12.30
2007,08,28,01,30,12.30
2007,08,28,01,31,12.30
2007,08,28,01,32,12.30
2007,08,28,01,33,12.30
2007,08,28,01,34,12.30
2007,08,28,01,35,12.30
2007,08,28,01,36,12.30
2007,08,28,01,37,12.30
2007,08,28,01,38,12.30
2007,08,28,01,39,12.30
2007,08,28,01,40,12.30
2007,08,28,01,41,12.20
2007,08,28,01,42,12.20
2007,08,28,01,43,12.20
2007,08,28,01,44,12.20
2007,08,28,01,45,12.20
2007,08,28,01,46,12.30
2007,08,28,01,47,12.30
2007,08,28,01,48,12.30
2007,08,28,01,49,12.30
2007,08,28,01,50,12.30
2007,08,28,01,51,12.20
2007,08,28,01,52,12.20
2007,08,28,01,53,12.20
2007,08,28,01,54,12.20
2007,08,28,01,55,12.20
2007,08,28,01,56,12.20
2007,08,28,01,57,12.20
2007,08,28,01,58,12.20
2007,08,28,01,59,12.20
2007,08,28,02,00,12.20
2007,08,28,02,01,12.20
2007,08,28,02,02,12.20
2007,08,28,02,03,12.20
2007,08,28,02,04,12.20
2007,08,28,02,05,12.20
2007,08,28,02,06,12.20
2007,08,28,02,07,12.10
2007,08,28,02,08,12.10
2007,08,28,02,09,12.10
2007,08,28,02,10,12.10
2007,08,28,02,11,12.10
2007,08,28,02,12,12.10
2007,08,28,02,13,12.10
2007,08,28,02,14,12.10
2007,08,28,02,15,12.10
2007,08,28,02,16,12.10
2007,08,28,02,17,12.10
2007,08,28,02,18,12.10
2007,08,28,02,19,12.10
2007,08,28,02,20,12.10
2007,08,28,02,21,12.10
2007,08,28,02,22,12.00
2007,08,28,02,23,12.00
2007,08,28,02,24,12.00
2007,08,28,02,25,12.00
2007,08,28,02,26,12.00
2007,08,28,02,27,12.00
2007,08,28,02,28,12.00
2007,08,28,02,29,12.00
2007,08,28,02,30,12.00
2007,08,28,02,31,12.00
2007,08,28,02,32,11.90
2007,08,28,02,33,11.90
2007,08,28,02,34,11.90
2007,08,28,02,35,11.90
2007,08,28,02,36,11.90
2007,08,28,02,37,11.90
2007,08,28,02,38,11.80
2007,08,28,02,39,11.80
2007,08,28,02,40,11.80
2007,08,28,02,41,11.80
2007,08,28,02,42,11.80
2007,08,28,02,43,11.80
2007,08,28,02,44,11.80
2007,08,28,02,45,11.80
2007,08,28,02,46,11.90
2007,08,28,02,47,11.90
2007,08,28,02,48,11.90
2007,08,28,02,49,11.90
2007,08,28,02,50,11.90
2007,08,28,02,51,11.80
2007,08,28,02,52,11.80
2007,08,28,02,53,11.80
2007,08,28,02,54,11.80
2007,08,28,02,55,11.80
2007,08,28,02,56,11.80
2007,08,28,02,57,11.80
2007,08,28,02,58,11.80
2007,08,28,02,59,11.80
2007,08,28,03,00,11.80
2007,08,28,03,01,11.80
2007,08,28,03,02,11.80
2007,08,28,03,03,11.80
2007,08,28,03,04,11.80
2007,08,28,03,05,11.80
2007,08,28,03,06,11.90
2007,08,28,03,07,11.90
2007,08,28,03,08,11.90
2007,08,28,03,09,11.90
2007,08,28,03,10,11.90
2007,08,28,03,11,11.90
2007,08,28,03,12,11.90
2007,08,28,03,13,11.90
2007,08,28,03,14,11.90
2007,08,28,03,15,11.90
2007,08,28,03,16,11.90
2007,08,28,03,17,11.90
2007,08,28,03,18,11.90
2007,08,28,03,19,11.90
2007,08,28,03,20,11.90
2007,08,28,03,21,11.90
2007,08,28,03,22,11.90
2007,08,28,03,23,11.90
2007,08,28,03,24,11.90
2007,08,28,03,25,11.90
2007,08,28,03,26,11.90
2007,08,28,03,27,11.90
2007,08,28,03,28,11.90
2007,08,28,03,29,11.90
2007,08,28,03,30,11.90
2007,08,28,03,31,11.90
2007,08,28,03,32,11.90
2007,08,28,03,33,11.90
2007,08,28,03,34,11.90
2007,08,28,03,35,11.90
2007,08,28,03,36,11.90
2007,08,28,03,37,11.90
2007,08,28,03,38,11.90
2007,08,28,03,39,11.80
2007,08,28,03,40,11.80
2007,08,28,03,41,11.80
2007,08,28,03,42,11.80
2007,08,28,03,43,11.80
2007,08,28,03,44,11.80
2007,08,28,03,45,11.80
2007,08,28,03,46,11.80
2007,08,28,03,47,11.80
2007,08,28,03,48,11.80
2007,08,28,03,49,11.80
2007,08,28,03,50,11.80
2007,08,28,03,51,11.80
2007,08,28,03,52,11.80
2007,08,28,03,53,11.80
2007,08,28,03,54,11.80
2007,08,28,03,55,11.80
2007,08,28,03,56,11.80
2007,08,28,03,57,11.80
2007,08,28,03,58,11.80
2007,08,28,03,59,11.80
2007,08,28,04,00,11.90
2007,08,28,04,01,11.90
2007,08,28,04,02,11.90
2007,08,28,04,03,11.90
2007,08,28,04,04,11.90
2007,08,28,04,05,12.00
2007,08,28,04,06,12.00
2007,08,28,04,07,12.00
2007,08,28,04,08,12.00
2007,08,28,04,09,11.90
2007,08,28,04,10,11.90
2007,08,28,04,11,11.90
2007,08,28,04,12,11.90
2007,08,28,04,13,11.90
2007,08,28,04,14,11.90
2007,08,28,04,15,11.90
2007,08,28,04,16,11.90
2007,08,28,04,17,11.90
2007,08,28,04,18,11.80
2007,08,28,04,19,11.80
2007,08,28,04,20,11.80
2007,08,28,04,21,11.80
2007,08,28,04,22,11.80
2007,08,28,04,23,11.80
2007,08,28,04,24,11.80
2007,08,28,04,25,11.80
2007,08,28,04,26,11.80
2007,08,28,04,27,11.80
2007,08,28,04,28,11.80
2007,08,28,04,29,11.70
2007,08,28,04,30,11.70
2007,08,28,04,31,11.60
2007,08,28,04,32,11.60
2007,08,28,04,33,11.60
2007,08,28,04,34,11.40
2007,08,28,04,35,11.40
2007,08,28,04,36,11.40
2007,08,28,04,37,11.40
2007,08,28,04,38,11.30
2007,08,28,04,39,11.20
2007,08,28,04,40,11.20
2007,08,28,04,41,11.20
2007,08,28,04,42,11.10
2007,08,28,04,43,11.10
2007,08,28,04,44,11.10
2007,08,28,04,45,11.10
2007,08,28,04,46,11.10
2007,08,28,04,47,11.10
2007,08,28,04,48,11.10
2007,08,28,04,49,10.90
2007,08,28,04,50,10.90
2007,08,28,04,51,10.90
2007,08,28,04,52,10.90
2007,08,28,04,53,10.90
2007,08,28,04,54,10.90
2007,08,28,04,55,10.90
2007,08,28,04,56,10.90
2007,08,28,04,57,10.90
2007,08,28,04,58,10.90
2007,08,28,04,59,10.90
2007,08,28,05,00,10.90
2007,08,28,05,01,10.90
2007,08,28,05,02,10.90
2007,08,28,05,03,10.90
2007,08,28,05,04,10.90
2007,08,28,05,05,10.90
2007,08,28,05,06,10.90
2007,08,28,05,07,10.90
2007,08,28,05,08,10.90
2007,08,28,05,09,10.90
2007,08,28,05,10,10.90
2007,08,28,05,11,10.90
2007,08,28,05,12,10.90
2007,08,28,05,13,10.90
2007,08,28,05,14,10.90
2007,08,28,05,15,10.90
2007,08,28,05,16,10.90
2007,08,28,05,17,10.90
2007,08,28,05,18,10.90
2007,08,28,05,19,10.90
2007,08,28,05,20,10.90
2007,08,28,05,21,10.90
2007,08,28,05,22,10.90
2007,08,28,05,23,10.90
2007,08,28,05,24,10.90
2007,08,28,05,25,10.90
2007,08,28,05,26,10.90
2007,08,28,05,27,10.90
2007,08,28,05,28,10.90
2007,08,28,05,29,10.90
2007,08,28,05,30,10.90
2007,08,28,05,31,10.90
2007,08,28,05,32,10.90
2007,08,28,05,33,10.90
2007,08,28,05,34,10.90
2007,08,28,05,35,10.90
2007,08,28,05,36,10.90
2007,08,28,05,37,10.90
2007,08,28,05,38,10.90
2007,08,28,05,39,10.90
2007,08,28,05,40,10.90
2007,08,28,05,41,10.90
2007,08,28,05,42,10.90
2007,08,28,05,43,10.80
2007,08,28,05,44,10.80
2007,08,28,05,45,10.80
2007,08,28,05,46,10.80
2007,08,28,05,47,10.80
2007,08,28,05,48,10.70
2007,08,28,05,49,10.70
2007,08,28,05,50,10.70
2007,08,28,05,51,10.70
2007,08,28,05,52,10.70
2007,08,28,05,53,10.70
2007,08,28,05,54,10.60
2007,08,28,05,55,10.60
2007,08,28,05,56,10.60
2007,08,28,05,57,10.60
2007,08,28,05,58,10.60
2007,08,28,05,59,10.60
2007,08,28,06,00,10.60
2007,08,28,06,01,10.60
2007,08,28,06,02,10.60
2007,08,28,06,03,10.60
2007,08,28,06,04,10.60
2007,08,28,06,05,10.60
2007,08,28,06,06,10.60
2007,08,28,06,07,10.70
2007,08,28,06,08,10.70
2007,08,28,06,09,10.70
2007,08,28,06,10,10.70
2007,08,28,06,11,10.70
2007,08,28,06,12,10.70
2007,08,28,06,13,10.70
2007,08,28,06,14,10.80
2007,08,28,06,15,10.80
2007,08,28,06,16,10.80
2007,08,28,06,17,10.80
2007,08,28,06,18,10.80
2007,08,28,06,19,10.80
2007,08,28,06,20,10.80
2007,08,28,06,21,10.80
2007,08,28,06,22,10.80
2007,08,28,06,23,10.80
2007,08,28,06,24,10.70
2007,08,28,06,25,10.80
2007,08,28,06,26,10.70
2007,08,28,06,27,10.80
2007,08,28,06,28,10.80
2007,08,28,06,29,10.80
2007,08,28,06,30,10.80
2007,08,28,06,31,10.80
2007,08,28,06,32,10.80
2007,08,28,06,33,10.70
2007,08,28,06,34,10.70
2007,08,28,06,35,10.70
2007,08,28,06,36,10.70
2007,08,28,06,37,10.70
2007,08,28,06,38,10.70
2007,08,28,06,39,10.70
2007,08,28,06,40,10.70
2007,08,28,06,41,10.70
2007,08,28,06,42,10.70
2007,08,28,06,43,10.70
2007,08,28,06,44,10.70
2007,08,28,06,45,10.70
2007,08,28,06,46,10.70
2007,08,28,06,47,10.70
2007,08,28,06,48,10.70
2007,08,28,06,49,10.70
2007,08,28,06,50,10.70
2007,08,28,06,51,10.70
2007,08,28,06,52,10.80
2007,08,28,06,53,10.80
2007,08,28,06,54,10.80
2007,08,28,06,55,10.90
2007,08,28,06,56,10.90
2007,08,28,06,57,10.90
2007,08,28,06,58,10.90
2007,08,28,06,59,10.90
2007,08,28,07,00,10.90
2007,08,28,07,01,10.90
2007,08,28,07,02,10.90
2007,08,28,07,03,11.00
2007,08,28,07,04,11.10
2007,08,28,07,05,11.10
2007,08,28,07,06,11.10
2007,08,28,07,07,11.10
2007,08,28,07,08,11.20
2007,08,28,07,09,11.20
2007,08,28,07,10,11.30
2007,08,28,07,11,11.40
2007,08,28,07,12,11.40
2007,08,28,07,13,11.40
2007,08,28,07,14,11.60
2007,08,28,07,15,11.60
2007,08,28,07,16,11.60
2007,08,28,07,17,11.60
2007,08,28,07,18,11.60
2007,08,28,07,19,11.70
2007,08,28,07,20,11.70
2007,08,28,07,21,11.70
2007,08,28,07,22,11.70
2007,08,28,07,23,11.70
2007,08,28,07,24,11.80
2007,08,28,07,25,11.80
2007,08,28,07,26,11.80
2007,08,28,07,27,11.80
2007,08,28,07,28,11.90
2007,08,28,07,29,11.90
2007,08,28,07,30,12.00
2007,08,28,07,31,12.00
2007,08,28,07,32,12.00
2007,08,28,07,33,12.00
2007,08,28,07,34,12.10
2007,08,28,07,35,12.10
2007,08,28,07,36,12.20
2007,08,28,07,37,12.20
2007,08,28,07,38,12.30
2007,08,28,07,39,12.30
2007,08,28,07,40,12.40
2007,08,28,07,41,12.40
2007,08,28,07,42,12.40
2007,08,28,07,43,12.40
2007,08,28,07,44,12.40
2007,08,28,07,45,12.40
2007,08,28,07,46,12.40
2007,08,28,07,47,12.50
2007,08,28,07,48,12.50
2007,08,28,07,49,12.50
2007,08,28,07,50,12.50
2007,08,28,07,51,12.50
2007,08,28,07,52,12.50
2007,08,28,07,53,12.50
2007,08,28,07,54,12.60
2007,08,28,07,55,12.60
2007,08,28,07,56,12.60
2007,08,28,07,57,12.60
2007,08,28,07,58,12.60
2007,08,28,07,59,12.60
2007,08,28,08,00,12.50
2007,08,28,08,01,12.50
2007,08,28,08,02,12.50
2007,08,28,08,03,12.50
2007,08,28,08,04,12.50
2007,08,28,08,05,12.50
2007,08,28,08,06,12.50
2007,08,28,08,07,12.50
2007,08,28,08,08,12.50
2007,08,28,08,09,12.60
2007,08,28,08,10,12.60
2007,08,28,08,11,12.60
2007,08,28,08,12,12.70
2007,08,28,08,13,12.60
2007,08,28,08,14,12.60
2007,08,28,08,15,12.60
2007,08,28,08,16,12.70
2007,08,28,08,17,12.70
2007,08,28,08,18,12.70
2007,08,28,08,19,12.70
2007,08,28,08,20,12.70
2007,08,28,08,21,12.70
2007,08,28,08,22,12.70
2007,08,28,08,23,12.70
2007,08,28,08,24,12.70
2007,08,28,08,25,12.70
2007,08,28,08,26,12.70
2007,08,28,08,27,12.70
2007,08,28,08,28,12.70
2007,08,28,08,29,12.70
2007,08,28,08,30,12.70
2007,08,28,08,31,12.70
2007,08,28,08,32,12.80
2007,08,28,08,33,12.80
2007,08,28,08,34,12.80
2007,08,28,08,35,12.80
2007,08,28,08,36,12.80
2007,08,28,08,37,12.80
2007,08,28,08,38,12.90
2007,08,28,08,39,12.90
2007,08,28,08,40,13.00
2007,08,28,08,41,13.00
2007,08,28,08,42,13.10
2007,08,28,08,43,13.10
2007,08,28,08,44,13.10
2007,08,28,08,45,13.20
2007,08,28,08,46,13.20
2007,08,28,08,47,13.20
2007,08,28,08,48,13.20
2007,08,28,08,49,13.30
2007,08,28,08,50,13.30
2007,08,28,08,51,13.30
2007,08,28,08,52,13.30
2007,08,28,08,53,13.30
2007,08,28,08,54,13.30
2007,08,28,08,55,13.30
2007,08,28,08,56,13.40
2007,08,28,08,57,13.40
2007,08,28,08,58,13.50
2007,08,28,08,59,13.50
2007,08,28,09,00,13.60
2007,08,28,09,01,13.60
2007,08,28,09,02,13.70
2007,08,28,09,03,13.70
2007,08,28,09,04,13.80
2007,08,28,09,05,13.80
2007,08,28,09,06,13.90
2007,08,28,09,07,13.90
2007,08,28,09,08,14.00
2007,08,28,09,09,14.00
2007,08,28,09,10,14.00
2007,08,28,09,11,14.10
2007,08,28,09,12,14.00
2007,08,28,09,13,14.00
2007,08,28,09,14,14.00
2007,08,28,09,15,14.00
2007,08,28,09,16,14.00
2007,08,28,09,17,14.00
2007,08,28,09,18,14.00
2007,08,28,09,19,14.00
2007,08,28,09,20,14.00
2007,08,28,09,21,14.00
2007,08,28,09,22,14.00
2007,08,28,09,23,14.00
2007,08,28,09,24,14.00
2007,08,28,09,25,14.00
2007,08,28,09,26,14.00
2007,08,28,09,27,14.00
2007,08,28,09,28,14.10
2007,08,28,09,29,14.10
2007,08,28,09,30,14.20
2007,08,28,09,31,14.20
2007,08,28,09,32,14.30
2007,08,28,09,33,14.30
2007,08,28,09,34,14.40
2007,08,28,09,35,14.40
2007,08,28,09,36,14.40
2007,08,28,09,37,14.40
2007,08,28,09,38,14.40
2007,08,28,09,39,14.40
2007,08,28,09,40,14.40
2007,08,28,09,41,14.40
2007,08,28,09,42,14.40
2007,08,28,09,43,14.50
2007,08,28,09,44,14.60
2007,08,28,09,45,14.60
2007,08,28,09,46,14.70
2007,08,28,09,47,14.70
2007,08,28,09,48,14.70
2007,08,28,09,49,14.80
2007,08,28,09,50,14.80
2007,08,28,09,51,14.80
2007,08,28,09,52,14.80
2007,08,28,09,53,14.80
2007,08,28,09,54,14.80
2007,08,28,09,55,14.80
2007,08,28,09,56,14.80
2007,08,28,09,57,14.80
2007,08,28,09,58,14.80
2007,08,28,09,59,14.80
2007,08,28,10,00,14.80
2007,08,28,10,01,14.80
2007,08,28,10,02,14.80
2007,08,28,10,03,14.70
2007,08,28,10,04,14.70
2007,08,28,10,05,14.60
2007,08,28,10,06,14.60
2007,08,28,10,07,14.50
2007,08,28,10,08,14.50
2007,08,28,10,09,14.60
2007,08,28,10,10,14.70
2007,08,28,10,11,14.70
2007,08,28,10,12,14.80
2007,08,28,10,13,14.80
2007,08,28,10,14,14.80
2007,08,28,10,15,14.90
2007,08,28,10,16,14.90
2007,08,28,10,17,14.90
2007,08,28,10,18,14.90
2007,08,28,10,19,14.80
2007,08,28,10,20,14.80
2007,08,28,10,21,14.90
2007,08,28,10,22,14.90
2007,08,28,10,23,14.90
2007,08,28,10,24,15.00
2007,08,28,10,25,15.00
2007,08,28,10,26,15.00
2007,08,28,10,27,15.00
2007,08,28,10,28,15.00
2007,08,28,10,29,15.00
2007,08,28,10,30,15.00
2007,08,28,10,31,14.90
2007,08,28,10,32,14.90
2007,08,28,10,33,14.80
2007,08,28,10,34,14.90
2007,08,28,10,35,14.90
2007,08,28,10,36,15.00
2007,08,28,10,37,15.10
2007,08,28,10,38,15.20
2007,08,28,10,39,15.30
2007,08,28,10,40,15.30
2007,08,28,10,41,15.30
2007,08,28,10,42,15.30
2007,08,28,10,43,15.20
2007,08,28,10,44,15.20
2007,08,28,10,45,15.20
2007,08,28,10,46,15.20
2007,08,28,10,47,15.30
2007,08,28,10,48,15.30
2007,08,28,10,49,15.30
2007,08,28,10,50,15.20
2007,08,28,10,51,15.20
2007,08,28,10,52,15.20
2007,08,28,10,53,15.20
2007,08,28,10,54,15.30
2007,08,28,10,55,15.30
2007,08,28,10,56,15.30
2007,08,28,10,57,15.30
2007,08,28,10,58,15.30
2007,08,28,10,59,15.40
2007,08,28,11,00,15.40
2007,08,28,11,01,15.50
2007,08,28,11,02,15.50
2007,08,28,11,03,15.50
2007,08,28,11,04,15.50
2007,08,28,11,05,15.50
2007,08,28,11,06,15.50
2007,08,28,11,07,15.50
2007,08,28,11,08,15.50
2007,08,28,11,09,15.60
2007,08,28,11,10,15.60
2007,08,28,11,11,15.60
2007,08,28,11,12,15.60
2007,08,28,11,13,15.70
2007,08,28,11,14,15.80
2007,08,28,11,15,15.80
2007,08,28,11,16,15.80
2007,08,28,11,17,15.80
2007,08,28,11,18,15.80
2007,08,28,11,19,15.80
2007,08,28,11,20,15.90
2007,08,28,11,21,15.80
2007,08,28,11,22,15.80
2007,08,28,11,23,15.80
2007,08,28,11,24,15.80
2007,08,28,11,25,15.80
2007,08,28,11,26,15.80
2007,08,28,11,27,15.90
2007,08,28,11,28,15.90
2007,08,28,11,29,15.90
2007,08,28,11,30,15.90
2007,08,28,11,31,15.90
2007,08,28,11,32,15.80
2007,08,28,11,33,15.90
2007,08,28,11,34,15.90
2007,08,28,11,35,15.90
2007,08,28,11,36,16.00
2007,08,28,11,37,16.10
2007,08,28,11,38,16.10
2007,08,28,11,39,16.10
2007,08,28,11,40,16.20
2007,08,28,11,41,16.20
2007,08,28,11,42,16.30
2007,08,28,11,43,16.30
2007,08,28,11,44,16.30
2007,08,28,11,45,16.30
2007,08,28,11,46,16.30
2007,08,28,11,47,16.40
2007,08,28,11,48,16.40
2007,08,28,11,49,16.40
2007,08,28,11,50,16.30
2007,08,28,11,51,16.10
2007,08,28,11,52,15.90
2007,08,28,11,53,15.70
2007,08,28,11,54,15.60
2007,08,28,11,55,15.60
2007,08,28,11,56,15.70
2007,08,28,11,57,15.80
2007,08,28,11,58,16.00
2007,08,28,11,59,16.10
2007,08,28,12,00,16.20
2007,08,28,12,01,16.30
2007,08,28,12,02,16.30
2007,08,28,12,03,16.30
2007,08,28,12,04,16.40
2007,08,28,12,05,16.40
2007,08,28,12,06,16.40
2007,08,28,12,07,16.40
2007,08,28,12,08,16.40
2007,08,28,12,09,16.40
2007,08,28,12,10,16.40
2007,08,28,12,11,16.50
2007,08,28,12,12,16.40
2007,08,28,12,13,16.40
2007,08,28,12,14,16.40
2007,08,28,12,15,16.40
2007,08,28,12,16,16.40
2007,08,28,12,17,16.40
2007,08,28,12,18,16.40
2007,08,28,12,19,16.40
2007,08,28,12,20,16.30
2007,08,28,12,21,16.30
2007,08,28,12,22,16.30
2007,08,28,12,23,16.30
2007,08,28,12,24,16.40
2007,08,28,12,25,16.40
2007,08,28,12,26,16.40
2007,08,28,12,27,16.40
2007,08,28,12,28,16.50
2007,08,28,12,29,16.60
2007,08,28,12,30,16.70
2007,08,28,12,31,16.80
2007,08,28,12,32,16.90
2007,08,28,12,33,17.00
2007,08,28,12,34,17.10
2007,08,28,12,35,17.30
2007,08,28,12,36,17.30
2007,08,28,12,37,17.40
2007,08,28,12,38,17.40
2007,08,28,12,39,17.50
2007,08,28,12,40,17.60
2007,08,28,12,41,17.70
2007,08,28,12,42,17.80
2007,08,28,12,43,17.90
2007,08,28,12,44,18.00
2007,08,28,12,45,18.10
2007,08,28,12,46,18.20
2007,08,28,12,47,18.30
2007,08,28,12,48,18.40
2007,08,28,12,49,18.60
2007,08,28,12,50,18.70
2007,08,28,12,51,18.80
2007,08,28,12,52,18.90
2007,08,28,12,53,19.00
2007,08,28,12,54,19.10
2007,08,28,12,55,19.10
2007,08,28,12,56,19.10
2007,08,28,12,57,19.10
2007,08,28,12,58,19.10
2007,08,28,12,59,19.20
2007,08,28,13,00,19.30
2007,08,28,13,01,19.30
2007,08,28,13,02,19.40
2007,08,28,13,03,19.50
2007,08,28,13,04,19.60
2007,08,28,13,05,19.50
2007,08,28,13,06,19.50
2007,08,28,13,07,19.50
2007,08,28,13,08,19.40
2007,08,28,13,09,19.40
2007,08,28,13,10,19.30
2007,08,28,13,11,19.20
2007,08,28,13,12,19.10
2007,08,28,13,13,19.10
2007,08,28,13,14,19.10
2007,08,28,13,15,19.20
2007,08,28,13,16,19.20
2007,08,28,13,17,19.20
2007,08,28,13,18,19.10
2007,08,28,13,19,19.10
2007,08,28,13,20,19.10
2007,08,28,13,21,19.10
2007,08,28,13,22,19.10
2007,08,28,13,23,19.20
2007,08,28,13,24,19.20
2007,08,28,13,25,19.20
2007,08,28,13,26,19.30
2007,08,28,13,27,19.30
2007,08,28,13,28,19.50
2007,08,28,13,29,19.60
2007,08,28,13,30,19.60
2007,08,28,13,31,19.60
2007,08,28,13,32,19.60
2007,08,28,13,33,19.60
2007,08,28,13,34,19.60
2007,08,28,13,35,19.50
2007,08,28,13,36,19.50
2007,08,28,13,37,19.50
2007,08,28,13,38,19.50
2007,08,28,13,39,19.50
2007,08,28,13,40,19.50
2007,08,28,13,41,19.50
2007,08,28,13,42,19.60
2007,08,28,13,43,19.60
2007,08,28,13,44,19.60
2007,08,28,13,45,19.60
2007,08,28,13,46,19.60
2007,08,28,13,47,19.50
2007,08,28,13,48,19.40
2007,08,28,13,49,19.50
2007,08,28,13,50,19.50
2007,08,28,13,51,19.60
2007,08,28,13,52,19.60
2007,08,28,13,53,19.60
2007,08,28,13,54,19.50
2007,08,28,13,55,19.40
2007,08,28,13,56,19.40
2007,08,28,13,57,19.40
2007,08,28,13,58,19.30
2007,08,28,13,59,19.30
2007,08,28,14,00,19.20
2007,08,28,14,01,19.20
2007,08,28,14,02,19.20
2007,08,28,14,03,19.20
2007,08,28,14,04,19.10
2007,08,28,14,05,19.10
2007,08,28,14,06,19.10
2007,08,28,14,07,19.10
2007,08,28,14,08,18.90
2007,08,28,14,09,18.90
2007,08,28,14,10,18.90
2007,08,28,14,11,18.90
2007,08,28,14,12,19.10
2007,08,28,14,13,19.10
2007,08,28,14,14,19.10
2007,08,28,14,15,19.10
2007,08,28,14,16,19.10
2007,08,28,14,17,19.20
2007,08,28,14,18,19.30
2007,08,28,14,19,19.40
2007,08,28,14,20,19.50
2007,08,28,14,21,19.60
2007,08,28,14,22,19.60
2007,08,28,14,23,19.60
2007,08,28,14,24,19.60
2007,08,28,14,25,19.60
2007,08,28,14,26,19.70
2007,08,28,14,27,19.70
2007,08,28,14,28,19.90
2007,08,28,14,29,19.90
2007,08,28,14,30,20.00
2007,08,28,14,31,20.20
2007,08,28,14,32,20.20
2007,08,28,14,33,20.20
2007,08,28,14,34,20.10
2007,08,28,14,35,20.00
2007,08,28,14,36,19.90
2007,08,28,14,37,19.80
2007,08,28,14,38,19.70
2007,08,28,14,39,19.70
2007,08,28,14,40,19.50
2007,08,28,14,41,19.50
2007,08,28,14,42,19.40
2007,08,28,14,43,19.30
2007,08,28,14,44,19.30
2007,08,28,14,45,19.20
2007,08,28,14,46,19.10
2007,08,28,14,47,19.00
2007,08,28,14,48,18.90
2007,08,28,14,49,19.00
2007,08,28,14,50,19.10
2007,08,28,14,51,19.10
2007,08,28,14,52,19.10
2007,08,28,14,53,19.30
2007,08,28,14,54,19.40
2007,08,28,14,55,19.60
2007,08,28,14,56,19.70
2007,08,28,14,57,19.80
2007,08,28,14,58,19.80
2007,08,28,14,59,19.70
2007,08,28,15,00,19.60
2007,08,28,15,01,19.40
2007,08,28,15,02,19.40
2007,08,28,15,03,19.50
2007,08,28,15,04,19.50
2007,08,28,15,05,19.60
2007,08,28,15,06,19.60
2007,08,28,15,07,19.60
2007,08,28,15,08,19.70
2007,08,28,15,09,19.80
2007,08,28,15,10,19.90
2007,08,28,15,11,20.00
2007,08,28,15,12,20.20
2007,08,28,15,13,20.30
2007,08,28,15,14,20.40
2007,08,28,15,15,20.40
2007,08,28,15,16,20.40
2007,08,28,15,17,20.40
2007,08,28,15,18,20.40
2007,08,28,15,19,20.40
2007,08,28,15,20,20.40
2007,08,28,15,21,20.40
2007,08,28,15,22,20.40
2007,08,28,15,23,20.50
2007,08,28,15,24,20.50
2007,08,28,15,25,20.40
2007,08,28,15,26,20.40
2007,08,28,15,27,20.50
2007,08,28,15,28,20.50
2007,08,28,15,29,20.70
2007,08,28,15,30,20.70
2007,08,28,15,31,20.80
2007,08,28,15,32,20.90
2007,08,28,15,33,21.00
2007,08,28,15,34,21.10
2007,08,28,15,35,21.20
2007,08,28,15,36,21.30
2007,08,28,15,37,21.20
2007,08,28,15,38,21.10
2007,08,28,15,39,21.10
2007,08,28,15,40,21.10
2007,08,28,15,41,21.00
2007,08,28,15,42,21.00
2007,08,28,15,43,21.00
2007,08,28,15,44,21.00
2007,08,28,15,45,21.00
2007,08,28,15,46,21.00
2007,08,28,15,47,21.00
2007,08,28,15,48,21.00
2007,08,28,15,49,21.00
2007,08,28,15,50,21.10
2007,08,28,15,51,21.10
2007,08,28,15,52,21.10
2007,08,28,15,53,21.20
2007,08,28,15,54,21.20
2007,08,28,15,55,21.20
2007,08,28,15,56,21.30
2007,08,28,15,57,21.30
2007,08,28,15,58,21.30
2007,08,28,15,59,21.30
2007,08,28,16,00,21.30
2007,08,28,16,01,21.10
2007,08,28,16,02,21.00
2007,08,28,16,03,20.90
2007,08,28,16,04,20.70
2007,08,28,16,05,20.60
2007,08,28,16,06,20.50
2007,08,28,16,07,20.40
2007,08,28,16,08,20.20
2007,08,28,16,09,20.20
2007,08,28,16,10,20.10
2007,08,28,16,11,20.00
2007,08,28,16,12,19.90
2007,08,28,16,13,19.90
2007,08,28,16,14,19.80
2007,08,28,16,15,19.70
2007,08,28,16,16,19.70
2007,08,28,16,17,19.60
2007,08,28,16,18,19.60
2007,08,28,16,19,19.60
2007,08,28,16,20,19.60
2007,08,28,16,21,19.70
2007,08,28,16,22,19.80
2007,08,28,16,23,19.80
2007,08,28,16,24,19.90
2007,08,28,16,25,19.90
2007,08,28,16,26,19.90
2007,08,28,16,27,19.90
2007,08,28,16,28,20.10
2007,08,28,16,29,20.10
2007,08,28,16,30,20.20
2007,08,28,16,31,20.20
2007,08,28,16,32,20.20
2007,08,28,16,33,20.20
2007,08,28,16,34,20.20
2007,08,28,16,35,20.10
2007,08,28,16,36,20.10
2007,08,28,16,37,20.10
2007,08,28,16,38,20.10
2007,08,28,16,39,20.10
2007,08,28,16,40,20.10
2007,08,28,16,41,20.10
2007,08,28,16,42,20.10
2007,08,28,16,43,20.20
2007,08,28,16,44,20.20
2007,08,28,16,45,20.20
2007,08,28,16,46,20.30
2007,08,28,16,47,20.40
2007,08,28,16,48,20.40
2007,08,28,16,49,20.40
2007,08,28,16,50,20.40
2007,08,28,16,51,20.40
2007,08,28,16,52,20.40
2007,08,28,16,53,20.40
2007,08,28,16,54,20.40
2007,08,28,16,55,20.40
2007,08,28,16,56,20.50
2007,08,28,16,57,20.50
2007,08,28,16,58,20.60
2007,08,28,16,59,20.70
2007,08,28,17,00,20.80
2007,08,28,17,01,20.90
2007,08,28,17,02,21.00
2007,08,28,17,03,21.00
2007,08,28,17,04,21.00
2007,08,28,17,05,21.10
2007,08,28,17,06,21.20
2007,08,28,17,07,21.10
2007,08,28,17,08,21.10
2007,08,28,17,09,21.10
2007,08,28,17,10,21.00
2007,08,28,17,11,21.00
2007,08,28,17,12,20.90
2007,08,28,17,13,20.80
2007,08,28,17,14,20.80
2007,08,28,17,15,20.70
2007,08,28,17,16,20.60
2007,08,28,17,17,20.50
2007,08,28,17,18,20.50
2007,08,28,17,19,20.60